When you browse on this site, cookies collect data to enhance your experience and personalize the content and advertising you see.
Visit our Privacy Policy to learn more. By continuing to use the site, you agree to this use of cookies and data.
  • în România
  • Lista ţărilor
  • Pe 7 zile
  • Temperatura apei
  • Hartă satelitară
  • Meteo pe hartă
  • Widget-uri
  • user-avatar
    Intrare

    Meteo pe oră la Shahabad

    Astăzi, 25 Aprilie, Joi

    Timp Temperatura Precipitaţii Vânt Presiune Umiditate
    00:00 +38°C° 0 mm 3 m/s 722 mmHg 18%
    01:00 +37°C° 0 mm 3 m/s 722 mmHg 20%
    02:00 +36°C° 0 mm 3 m/s 722 mmHg 22%
    03:00 +36°C° 0 mm 3 m/s 722 mmHg 23%
    04:00 +35°C° 0 mm 3 m/s 722 mmHg 25%
    05:00 +34°C° 0 mm 3 m/s 722 mmHg 28%
    06:00 +36°C° 0 mm 3 m/s 722 mmHg 26%
    07:00 +37°C° 0 mm 4 m/s 723 mmHg 24%
    08:00 +38°C° 0 mm 4 m/s 723 mmHg 23%
    09:00 +41°C° 0 mm 4 m/s 723 mmHg 20%
    10:00 +42°C° 0 mm 4 m/s 723 mmHg 17%
    11:00 +43°C° 0 mm 3 m/s 724 mmHg 14%
    12:00 +44°C° 0 mm 3 m/s 723 mmHg 13%
    13:00 +44°C° 0 mm 3 m/s 722 mmHg 12%
    14:00 +45°C° 0 mm 3 m/s 722 mmHg 11%
    15:00 +45°C° 0 mm 3 m/s 721 mmHg 11%
    16:00 +45°C° 0 mm 3 m/s 721 mmHg 10%
    17:00 +45°C° 0 mm 3 m/s 721 mmHg 10%
    18:00 +44°C° 0 mm 3 m/s 721 mmHg 11%
    19:00 +43°C° 0 mm 2 m/s 721 mmHg 12%
    20:00 +42°C° 0 mm 2 m/s 721 mmHg 12%
    21:00 +42°C° 0 mm 2 m/s 721 mmHg 12%
    22:00 +42°C° 0 mm 2 m/s 722 mmHg 13%
    23:00 +42°C° 0 mm 2 m/s 722 mmHg 13%

    Mâine, 26 Aprilie, Vineri

    Timp Temperatura Precipitaţii Vânt Presiune Umiditate
    00:00 +42°C° 0 mm 4 m/s 721 mmHg 15%
    01:00 +41°C° 0 mm 6 m/s 721 mmHg 17%
    02:00 +40°C° 0 mm 8 m/s 721 mmHg 19%
    03:00 +39°C° 0 mm 7 m/s 721 mmHg 19%
    04:00 +38°C° 0 mm 6 m/s 721 mmHg 20%
    05:00 +36°C° 0 mm 4 m/s 721 mmHg 21%
    06:00 +37°C° 0 mm 4 m/s 721 mmHg 21%
    07:00 +38°C° 0 mm 4 m/s 722 mmHg 21%
    08:00 +40°C° 0 mm 4 m/s 722 mmHg 21%
    09:00 +41°C° 0 mm 4 m/s 722 mmHg 20%
    10:00 +43°C° 0 mm 3 m/s 722 mmHg 18%
    11:00 +44°C° 0 mm 3 m/s 722 mmHg 17%
    12:00 +43°C° 0 mm 2 m/s 721 mmHg 16%
    13:00 +43°C° 0 mm 2 m/s 721 mmHg 15%
    14:00 +43°C° 0 mm 1 m/s 720 mmHg 14%
    15:00 +43°C° 0 mm 2 m/s 720 mmHg 14%
    16:00 +43°C° 0 mm 2 m/s 719 mmHg 14%
    17:00 +43°C° 0 mm 2 m/s 719 mmHg 14%
    18:00 +44°C° 0 mm 3 m/s 720 mmHg 15%
    19:00 +43°C° 0 mm 3 m/s 720 mmHg 15%
    20:00 +43°C° 0 mm 4 m/s 721 mmHg 16%
    21:00 +43°C° 0 mm 4 m/s 721 mmHg 16%
    22:00 +42°C° 0 mm 3 m/s 721 mmHg 16%
    23:00 +42°C° 0 mm 3 m/s 721 mmHg 16%

    Poimâine, 27 Aprilie, Sâmbătă

    Timp Temperatura Precipitaţii Vânt Presiune Umiditate
    00:00 +41°C° 0 mm 4 m/s 721 mmHg 18%
    01:00 +40°C° 0 mm 5 m/s 721 mmHg 20%
    02:00 +39°C° 0 mm 6 m/s 720 mmHg 22%
    03:00 +39°C° 0 mm 5 m/s 720 mmHg 25%
    04:00 +37°C° 0 mm 3 m/s 720 mmHg 27%
    05:00 +35°C° 0 mm 1 m/s 720 mmHg 30%
    06:00 +38°C° 0 mm 2 m/s 721 mmHg 28%
    07:00 +39°C° 0 mm 2 m/s 721 mmHg 26%
    08:00 +40°C° 0 mm 2 m/s 722 mmHg 25%
    09:00 +41°C° 0 mm 2 m/s 722 mmHg 21%
    10:00 +43°C° 0 mm 2 m/s 722 mmHg 18%
    11:00 +45°C° 0 mm 2 m/s 722 mmHg 14%
    12:00 +45°C° 0 mm 2 m/s 721 mmHg 13%
    13:00 +45°C° 0 mm 2 m/s 720 mmHg 13%
    14:00 +46°C° 0 mm 2 m/s 719 mmHg 12%
    15:00 +46°C° 0 mm 2 m/s 719 mmHg 12%
    16:00 +46°C° 0 mm 3 m/s 719 mmHg 12%
    17:00 +46°C° 0 mm 3 m/s 718 mmHg 12%
    18:00 +45°C° 0 mm 3 m/s 719 mmHg 13%
    19:00 +45°C° 0 mm 4 m/s 719 mmHg 13%
    20:00 +44°C° 0 mm 4 m/s 720 mmHg 14%
    21:00 +43°C° 0 mm 4 m/s 720 mmHg 14%
    22:00 +43°C° 0 mm 4 m/s 720 mmHg 15%
    23:00 +43°C° 0 mm 3 m/s 721 mmHg 15%

    28 Aprilie, Duminică

    Timp Temperatura Precipitaţii Vânt Presiune Umiditate
    00:00 +42°C° 0 mm 3 m/s 720 mmHg 17%
    01:00 +41°C° 0 mm 4 m/s 720 mmHg 20%
    02:00 +40°C° 0 mm 4 m/s 719 mmHg 22%
    03:00 +38°C° 0 mm 3 m/s 719 mmHg 26%
    04:00 +38°C° 0 mm 3 m/s 719 mmHg 29%
    05:00 +37°C° 0 mm 3 m/s 719 mmHg 32%
    06:00 +38°C° 0 mm 3 m/s 720 mmHg 31%
    07:00 +38°C° 0 mm 2 m/s 721 mmHg 30%
    08:00 +39°C° 0 mm 2 m/s 721 mmHg 29%
    09:00 +40°C° 0 mm 2 m/s 721 mmHg 26%
    10:00 +42°C° 0 mm 2 m/s 721 mmHg 22%
    11:00 +44°C° 0 mm 3 m/s 721 mmHg 18%
    12:00 +45°C° 0 mm 2 m/s 720 mmHg 17%
    13:00 +45°C° 0 mm 2 m/s 719 mmHg 16%
    14:00 +45°C° 0 mm 1 m/s 718 mmHg 14%
    15:00 +44°C° 0 mm 1 m/s 718 mmHg 14%
    16:00 +45°C° 0 mm 2 m/s 718 mmHg 15%
    17:00 +45°C° 0 mm 2 m/s 718 mmHg 15%
    18:00 +45°C° 0 mm 2 m/s 718 mmHg 15%
    19:00 +43°C° 0 mm 2 m/s 719 mmHg 16%
    20:00 +44°C° 0 mm 3 m/s 719 mmHg 16%
    21:00 +43°C° 0 mm 3 m/s 720 mmHg 17%
    22:00 +43°C° 0 mm 3 m/s 720 mmHg 19%
    23:00 +42°C° 0 mm 3 m/s 720 mmHg 20%

    29 Aprilie, Luni

    Timp Temperatura Precipitaţii Vânt Presiune Umiditate
    00:00 +41°C° 0 mm 4 m/s 720 mmHg 23%
    01:00 +40°C° 0 mm 6 m/s 719 mmHg 26%
    02:00 +39°C° 0 mm 7 m/s 719 mmHg 28%
    03:00 +39°C° 0 mm 6 m/s 719 mmHg 29%
    04:00 +38°C° 0 mm 4 m/s 719 mmHg 30%
    05:00 +38°C° 0 mm 3 m/s 719 mmHg 31%
    06:00 +38°C° 0 mm 3 m/s 720 mmHg 31%
    07:00 +39°C° 0 mm 3 m/s 721 mmHg 31%
    08:00 +39°C° 0 mm 3 m/s 721 mmHg 32%
    09:00 +42°C° 0 mm 3 m/s 721 mmHg 28%
    10:00 +43°C° 0 mm 3 m/s 721 mmHg 25%
    11:00 +44°C° 0 mm 3 m/s 721 mmHg 21%
    12:00 +45°C° 0 mm 2 m/s 720 mmHg 20%
    13:00 +45°C° 0 mm 2 m/s 719 mmHg 18%
    14:00 +44°C° 0 mm 1 m/s 718 mmHg 16%
    15:00 +44°C° 0 mm 1 m/s 718 mmHg 16%
    16:00 +44°C° 0 mm 1 m/s 718 mmHg 16%
    17:00 +44°C° 0 mm 1 m/s 718 mmHg 16%
    18:00 +44°C° 0 mm 1 m/s 718 mmHg 17%
    19:00 +43°C° 0 mm 1 m/s 719 mmHg 17%
    20:00 +43°C° 0 mm 2 m/s 719 mmHg 17%
    21:00 +42°C° 0 mm 2 m/s 719 mmHg 18%
    22:00 +43°C° 0 mm 3 m/s 720 mmHg 19%
    23:00 +42°C° 0 mm 4 m/s 720 mmHg 20%

    30 Aprilie, Marţi

    Timp Temperatura Precipitaţii Vânt Presiune Umiditate
    00:00 +41°C° 0 mm 4 m/s 720 mmHg 28%
    01:00 +38°C° 0 mm 4 m/s 719 mmHg 35%
    02:00 +37°C° 0 mm 4 m/s 719 mmHg 42%
    03:00 +37°C° 0 mm 4 m/s 719 mmHg 43%
    04:00 +36°C° 0 mm 4 m/s 719 mmHg 44%
    05:00 +36°C° 0 mm 4 m/s 719 mmHg 45%
    06:00 +36°C° 0 mm 4 m/s 720 mmHg 43%
    07:00 +37°C° 0 mm 4 m/s 720 mmHg 41%
    08:00 +37°C° 0 mm 5 m/s 721 mmHg 39%
    09:00 +40°C° 0 mm 4 m/s 721 mmHg 32%
    10:00 +42°C° 0 mm 4 m/s 720 mmHg 26%
    11:00 +43°C° 0 mm 4 m/s 720 mmHg 19%
    12:00 +44°C° 0 mm 3 m/s 719 mmHg 17%
    13:00 +45°C° 0 mm 2 m/s 718 mmHg 14%
    14:00 +46°C° 0 mm 1 m/s 718 mmHg 11%
    15:00 +45°C° 0 mm 1 m/s 717 mmHg 11%
    16:00 +45°C° 0 mm 1 m/s 717 mmHg 12%
    17:00 +45°C° 0 mm 1 m/s 717 mmHg 12%
    18:00 +45°C° 0 mm 2 m/s 718 mmHg 14%
    19:00 +44°C° 0 mm 3 m/s 718 mmHg 16%
    20:00 +43°C° 0 mm 4 m/s 719 mmHg 18%
    21:00 +42°C° 0 mm 5 m/s 719 mmHg 22%
    22:00 +41°C° 0 mm 5 m/s 719 mmHg 27%
    23:00 +40°C° 0 mm 6 m/s 719 mmHg 31%
    Arată mai mult